Year,Month,Day,Hour,Minute,Value (Times are PST for temperature in C)
2013,09,03,00,00,15.30
2013,09,03,00,01,15.30
2013,09,03,00,02,15.30
2013,09,03,00,03,15.30
2013,09,03,00,04,15.30
2013,09,03,00,05,15.30
2013,09,03,00,06,15.20
2013,09,03,00,07,15.20
2013,09,03,00,08,15.20
2013,09,03,00,09,15.20
2013,09,03,00,10,15.10
2013,09,03,00,11,15.10
2013,09,03,00,12,15.00
2013,09,03,00,13,15.00
2013,09,03,00,14,15.00
2013,09,03,00,15,15.00
2013,09,03,00,16,15.00
2013,09,03,00,17,15.00
2013,09,03,00,18,15.00
2013,09,03,00,19,15.00
2013,09,03,00,20,15.00
2013,09,03,00,21,15.00
2013,09,03,00,22,15.00
2013,09,03,00,23,15.00
2013,09,03,00,24,15.00
2013,09,03,00,25,14.90
2013,09,03,00,26,14.90
2013,09,03,00,27,14.90
2013,09,03,00,28,14.90
2013,09,03,00,29,14.90
2013,09,03,00,30,14.80
2013,09,03,00,31,14.80
2013,09,03,00,32,14.80
2013,09,03,00,33,14.80
2013,09,03,00,34,14.80
2013,09,03,00,35,14.80
2013,09,03,00,36,14.80
2013,09,03,00,37,14.80
2013,09,03,00,38,14.80
2013,09,03,00,39,14.80
2013,09,03,00,40,14.80
2013,09,03,00,41,14.80
2013,09,03,00,42,14.80
2013,09,03,00,43,14.80
2013,09,03,00,44,14.80
2013,09,03,00,45,14.80
2013,09,03,00,46,14.80
2013,09,03,00,47,14.80
2013,09,03,00,48,14.80
2013,09,03,00,49,14.80
2013,09,03,00,50,14.80
2013,09,03,00,51,14.80
2013,09,03,00,52,14.80
2013,09,03,00,53,14.70
2013,09,03,00,54,14.70
2013,09,03,00,55,14.70
2013,09,03,00,56,14.70
2013,09,03,00,57,14.70
2013,09,03,00,58,14.60
2013,09,03,00,59,14.60
2013,09,03,01,00,14.60
2013,09,03,01,01,14.60
2013,09,03,01,02,14.60
2013,09,03,01,03,14.60
2013,09,03,01,04,14.60
2013,09,03,01,05,14.60
2013,09,03,01,06,14.50
2013,09,03,01,07,14.50
2013,09,03,01,08,14.50
2013,09,03,01,09,14.60
2013,09,03,01,10,14.60
2013,09,03,01,11,14.60
2013,09,03,01,12,14.60
2013,09,03,01,13,14.60
2013,09,03,01,14,14.60
2013,09,03,01,15,14.60
2013,09,03,01,16,14.60
2013,09,03,01,17,14.60
2013,09,03,01,18,14.60
2013,09,03,01,19,14.60
2013,09,03,01,20,14.60
2013,09,03,01,21,14.60
2013,09,03,01,22,14.60
2013,09,03,01,23,14.60
2013,09,03,01,24,14.60
2013,09,03,01,25,14.70
2013,09,03,01,26,14.70
2013,09,03,01,27,14.70
2013,09,03,01,28,14.70
2013,09,03,01,29,14.70
2013,09,03,01,30,14.70
2013,09,03,01,31,14.70
2013,09,03,01,32,14.80
2013,09,03,01,33,14.80
2013,09,03,01,34,14.80
2013,09,03,01,35,14.70
2013,09,03,01,36,14.70
2013,09,03,01,37,14.70
2013,09,03,01,38,14.70
2013,09,03,01,39,14.60
2013,09,03,01,40,14.60
2013,09,03,01,41,14.60
2013,09,03,01,42,14.60
2013,09,03,01,43,14.60
2013,09,03,01,44,14.70
2013,09,03,01,45,14.70
2013,09,03,01,46,14.70
2013,09,03,01,47,14.70
2013,09,03,01,48,14.60
2013,09,03,01,49,14.60
2013,09,03,01,50,14.60
2013,09,03,01,51,14.60
2013,09,03,01,52,14.60
2013,09,03,01,53,14.60
2013,09,03,01,54,14.60
2013,09,03,01,55,14.60
2013,09,03,01,56,14.50
2013,09,03,01,57,14.50
2013,09,03,01,58,14.50
2013,09,03,01,59,14.50
2013,09,03,02,00,14.50
2013,09,03,02,01,14.50
2013,09,03,02,02,14.60
2013,09,03,02,03,14.60
2013,09,03,02,04,14.60
2013,09,03,02,05,14.60
2013,09,03,02,06,14.60
2013,09,03,02,07,14.60
2013,09,03,02,08,14.60
2013,09,03,02,09,14.50
2013,09,03,02,10,14.50
2013,09,03,02,11,14.50
2013,09,03,02,12,14.50
2013,09,03,02,13,14.50
2013,09,03,02,14,14.50
2013,09,03,02,15,14.60
2013,09,03,02,16,14.60
2013,09,03,02,17,14.60
2013,09,03,02,18,14.60
2013,09,03,02,19,14.50
2013,09,03,02,20,14.50
2013,09,03,02,21,14.50
2013,09,03,02,22,14.50
2013,09,03,02,23,14.50
2013,09,03,02,24,14.50
2013,09,03,02,25,14.50
2013,09,03,02,26,14.50
2013,09,03,02,27,14.50
2013,09,03,02,28,14.50
2013,09,03,02,29,14.60
2013,09,03,02,30,14.60
2013,09,03,02,31,14.60
2013,09,03,02,32,14.60
2013,09,03,02,33,14.60
2013,09,03,02,34,14.70
2013,09,03,02,35,14.70
2013,09,03,02,36,14.70
2013,09,03,02,37,14.70
2013,09,03,02,38,14.70
2013,09,03,02,39,14.70
2013,09,03,02,40,14.70
2013,09,03,02,41,14.70
2013,09,03,02,42,14.70
2013,09,03,02,43,14.70
2013,09,03,02,44,14.70
2013,09,03,02,45,14.70
2013,09,03,02,46,14.70
2013,09,03,02,47,14.70
2013,09,03,02,48,14.70
2013,09,03,02,49,14.70
2013,09,03,02,50,14.70
2013,09,03,02,51,14.70
2013,09,03,02,52,14.70
2013,09,03,02,53,14.70
2013,09,03,02,54,14.70
2013,09,03,02,55,14.70
2013,09,03,02,56,14.70
2013,09,03,02,57,14.70
2013,09,03,02,58,14.70
2013,09,03,02,59,14.70
2013,09,03,03,00,14.70
2013,09,03,03,01,14.70
2013,09,03,03,02,14.70
2013,09,03,03,03,14.70
2013,09,03,03,04,14.70
2013,09,03,03,05,14.70
2013,09,03,03,06,14.70
2013,09,03,03,07,14.70
2013,09,03,03,08,14.70
2013,09,03,03,09,14.70
2013,09,03,03,10,14.70
2013,09,03,03,11,14.70
2013,09,03,03,12,14.70
2013,09,03,03,13,14.70
2013,09,03,03,14,14.70
2013,09,03,03,15,14.70
2013,09,03,03,16,14.70
2013,09,03,03,17,14.70
2013,09,03,03,18,14.70
2013,09,03,03,19,14.70
2013,09,03,03,20,14.70
2013,09,03,03,21,14.70
2013,09,03,03,22,14.70
2013,09,03,03,23,14.70
2013,09,03,03,24,14.70
2013,09,03,03,25,14.70
2013,09,03,03,26,14.70
2013,09,03,03,27,14.70
2013,09,03,03,28,14.70
2013,09,03,03,29,14.70
2013,09,03,03,30,14.60
2013,09,03,03,31,14.60
2013,09,03,03,32,14.60
2013,09,03,03,33,14.60
2013,09,03,03,34,14.60
2013,09,03,03,35,14.60
2013,09,03,03,36,14.60
2013,09,03,03,37,14.60
2013,09,03,03,38,14.60
2013,09,03,03,39,14.60
2013,09,03,03,40,14.60
2013,09,03,03,41,14.60
2013,09,03,03,42,14.60
2013,09,03,03,43,14.60
2013,09,03,03,44,14.60
2013,09,03,03,45,14.60
2013,09,03,03,46,14.60
2013,09,03,03,47,14.60
2013,09,03,03,48,14.60
2013,09,03,03,49,14.60
2013,09,03,03,50,14.60
2013,09,03,03,51,14.60
2013,09,03,03,52,14.60
2013,09,03,03,53,14.60
2013,09,03,03,54,14.50
2013,09,03,03,55,14.50
2013,09,03,03,56,14.60
2013,09,03,03,57,14.60
2013,09,03,03,58,14.60
2013,09,03,03,59,14.60
2013,09,03,04,00,14.60
2013,09,03,04,01,14.60
2013,09,03,04,02,14.60
2013,09,03,04,03,14.60
2013,09,03,04,04,14.60
2013,09,03,04,05,14.60
2013,09,03,04,06,14.60
2013,09,03,04,07,14.60
2013,09,03,04,08,14.60
2013,09,03,04,09,14.60
2013,09,03,04,10,14.60
2013,09,03,04,11,14.60
2013,09,03,04,12,14.60
2013,09,03,04,13,14.60
2013,09,03,04,14,14.60
2013,09,03,04,15,14.60
2013,09,03,04,16,14.50
2013,09,03,04,17,14.50
2013,09,03,04,18,14.50
2013,09,03,04,19,14.50
2013,09,03,04,20,14.50
2013,09,03,04,21,14.50
2013,09,03,04,22,14.50
2013,09,03,04,23,14.50
2013,09,03,04,24,14.40
2013,09,03,04,25,14.40
2013,09,03,04,26,14.40
2013,09,03,04,27,14.40
2013,09,03,04,28,14.40
2013,09,03,04,29,14.40
2013,09,03,04,30,14.50
2013,09,03,04,31,14.50
2013,09,03,04,32,14.50
2013,09,03,04,33,14.50
2013,09,03,04,34,14.50
2013,09,03,04,35,14.50
2013,09,03,04,36,14.50
2013,09,03,04,37,14.50
2013,09,03,04,38,14.50
2013,09,03,04,39,14.50
2013,09,03,04,40,14.50
2013,09,03,04,41,14.50
2013,09,03,04,42,14.50
2013,09,03,04,43,14.50
2013,09,03,04,44,14.60
2013,09,03,04,45,14.60
2013,09,03,04,46,14.60
2013,09,03,04,47,14.60
2013,09,03,04,48,14.60
2013,09,03,04,49,14.60
2013,09,03,04,50,14.60
2013,09,03,04,51,14.60
2013,09,03,04,52,14.60
2013,09,03,04,53,14.60
2013,09,03,04,54,14.60
2013,09,03,04,55,14.60
2013,09,03,04,56,14.60
2013,09,03,04,57,14.60
2013,09,03,04,58,14.60
2013,09,03,04,59,14.70
2013,09,03,05,00,14.70
2013,09,03,05,01,14.70
2013,09,03,05,02,14.70
2013,09,03,05,03,14.70
2013,09,03,05,04,14.70
2013,09,03,05,05,14.70
2013,09,03,05,06,14.70
2013,09,03,05,07,14.70
2013,09,03,05,08,14.70
2013,09,03,05,09,14.70
2013,09,03,05,10,14.70
2013,09,03,05,11,14.70
2013,09,03,05,12,14.80
2013,09,03,05,13,14.80
2013,09,03,05,14,14.80
2013,09,03,05,15,14.80
2013,09,03,05,16,14.80
2013,09,03,05,17,14.80
2013,09,03,05,18,14.90
2013,09,03,05,19,14.90
2013,09,03,05,20,15.00
2013,09,03,05,21,15.00
2013,09,03,05,22,15.00
2013,09,03,05,23,15.00
2013,09,03,05,24,15.00
2013,09,03,05,25,15.00
2013,09,03,05,26,15.00
2013,09,03,05,27,15.00
2013,09,03,05,28,15.00
2013,09,03,05,29,15.00
2013,09,03,05,30,15.00
2013,09,03,05,31,15.00
2013,09,03,05,32,15.00
2013,09,03,05,33,15.00
2013,09,03,05,34,15.00
2013,09,03,05,35,15.00
2013,09,03,05,36,15.00
2013,09,03,05,37,15.00
2013,09,03,05,38,15.00
2013,09,03,05,39,15.00
2013,09,03,05,40,15.00
2013,09,03,05,41,15.00
2013,09,03,05,42,15.00
2013,09,03,05,43,15.00
2013,09,03,05,44,15.00
2013,09,03,05,45,15.00
2013,09,03,05,46,15.00
2013,09,03,05,47,15.00
2013,09,03,05,48,15.00
2013,09,03,05,49,15.00
2013,09,03,05,50,15.00
2013,09,03,05,51,15.00
2013,09,03,05,52,15.00
2013,09,03,05,53,15.00
2013,09,03,05,54,15.00
2013,09,03,05,55,15.00
2013,09,03,05,56,15.00
2013,09,03,05,57,15.00
2013,09,03,05,58,15.00
2013,09,03,05,59,15.00
2013,09,03,06,00,15.00
2013,09,03,06,01,15.00
2013,09,03,06,02,15.00
2013,09,03,06,03,15.00
2013,09,03,06,04,15.00
2013,09,03,06,05,15.00
2013,09,03,06,06,15.00
2013,09,03,06,07,15.00
2013,09,03,06,08,15.00
2013,09,03,06,09,15.00
2013,09,03,06,10,15.00
2013,09,03,06,11,15.00
2013,09,03,06,12,15.00
2013,09,03,06,13,15.00
2013,09,03,06,14,15.00
2013,09,03,06,15,15.00
2013,09,03,06,16,15.00
2013,09,03,06,17,14.90
2013,09,03,06,18,14.90
2013,09,03,06,19,14.90
2013,09,03,06,20,14.90
2013,09,03,06,21,14.90
2013,09,03,06,22,14.80
2013,09,03,06,23,14.80
2013,09,03,06,24,14.80
2013,09,03,06,25,14.80
2013,09,03,06,26,14.80
2013,09,03,06,27,14.80
2013,09,03,06,28,14.80
2013,09,03,06,29,14.80
2013,09,03,06,30,14.80
2013,09,03,06,31,14.80
2013,09,03,06,32,14.80
2013,09,03,06,33,14.80
2013,09,03,06,34,14.80
2013,09,03,06,35,14.80
2013,09,03,06,36,14.80
2013,09,03,06,37,14.80
2013,09,03,06,38,14.80
2013,09,03,06,39,14.80
2013,09,03,06,40,14.80
2013,09,03,06,41,14.80
2013,09,03,06,42,14.80
2013,09,03,06,43,14.80
2013,09,03,06,44,14.80
2013,09,03,06,45,14.80
2013,09,03,06,46,14.80
2013,09,03,06,47,14.80
2013,09,03,06,48,14.70
2013,09,03,06,49,14.70
2013,09,03,06,50,14.70
2013,09,03,06,51,14.70
2013,09,03,06,52,14.70
2013,09,03,06,53,14.70
2013,09,03,06,54,14.70
2013,09,03,06,55,14.70
2013,09,03,06,56,14.70
2013,09,03,06,57,14.70
2013,09,03,06,58,14.70
2013,09,03,06,59,14.70
2013,09,03,07,00,14.70
2013,09,03,07,01,14.70
2013,09,03,07,02,14.70
2013,09,03,07,03,14.70
2013,09,03,07,04,14.70
2013,09,03,07,05,14.70
2013,09,03,07,06,14.70
2013,09,03,07,07,14.70
2013,09,03,07,08,14.70
2013,09,03,07,09,14.70
2013,09,03,07,10,14.70
2013,09,03,07,11,14.70
2013,09,03,07,12,14.70
2013,09,03,07,13,14.70
2013,09,03,07,14,14.70
2013,09,03,07,15,14.70
2013,09,03,07,16,14.70
2013,09,03,07,17,14.70
2013,09,03,07,18,14.70
2013,09,03,07,19,14.70
2013,09,03,07,20,14.70
2013,09,03,07,21,14.70
2013,09,03,07,22,14.70
2013,09,03,07,23,14.70
2013,09,03,07,24,14.70
2013,09,03,07,25,14.70
2013,09,03,07,26,14.70
2013,09,03,07,27,14.70
2013,09,03,07,28,14.70
2013,09,03,07,29,14.70
2013,09,03,07,30,14.70
2013,09,03,07,31,14.70
2013,09,03,07,32,14.70
2013,09,03,07,33,14.70
2013,09,03,07,34,14.70
2013,09,03,07,35,14.70
2013,09,03,07,36,14.70
2013,09,03,07,37,14.70
2013,09,03,07,38,14.70
2013,09,03,07,39,14.70
2013,09,03,07,40,14.60
2013,09,03,07,41,14.60
2013,09,03,07,42,14.60
2013,09,03,07,43,14.60
2013,09,03,07,44,14.60
2013,09,03,07,45,14.60
2013,09,03,07,46,14.60
2013,09,03,07,47,14.60
2013,09,03,07,48,14.60
2013,09,03,07,49,14.70
2013,09,03,07,50,14.70
2013,09,03,07,51,14.70
2013,09,03,07,52,14.70
2013,09,03,07,53,14.70
2013,09,03,07,54,14.70
2013,09,03,07,55,14.60
2013,09,03,07,56,14.60
2013,09,03,07,57,14.60
2013,09,03,07,58,14.60
2013,09,03,07,59,14.60
2013,09,03,08,00,14.60
2013,09,03,08,01,14.60
2013,09,03,08,02,14.50
2013,09,03,08,03,14.50
2013,09,03,08,04,14.60
2013,09,03,08,05,14.60
2013,09,03,08,06,14.70
2013,09,03,08,07,14.80
2013,09,03,08,08,14.90
2013,09,03,08,09,14.90
2013,09,03,08,10,14.80
2013,09,03,08,11,14.80
2013,09,03,08,12,14.80
2013,09,03,08,13,14.70
2013,09,03,08,14,14.70
2013,09,03,08,15,14.60
2013,09,03,08,16,14.60
2013,09,03,08,17,14.60
2013,09,03,08,18,14.60
2013,09,03,08,19,14.60
2013,09,03,08,20,14.50
2013,09,03,08,21,14.50
2013,09,03,08,22,14.50
2013,09,03,08,23,14.50
2013,09,03,08,24,14.60
2013,09,03,08,25,14.50
2013,09,03,08,26,14.60
2013,09,03,08,27,14.60
2013,09,03,08,28,14.60
2013,09,03,08,29,14.60
2013,09,03,08,30,14.60
2013,09,03,08,31,14.60
2013,09,03,08,32,14.60
2013,09,03,08,33,14.60
2013,09,03,08,34,14.70
2013,09,03,08,35,14.70
2013,09,03,08,36,14.70
2013,09,03,08,37,14.70
2013,09,03,08,38,14.70
2013,09,03,08,39,14.70
2013,09,03,08,40,14.70
2013,09,03,08,41,14.70
2013,09,03,08,42,14.70
2013,09,03,08,43,14.70
2013,09,03,08,44,14.70
2013,09,03,08,45,14.70
2013,09,03,08,46,14.70
2013,09,03,08,47,14.70
2013,09,03,08,48,14.70
2013,09,03,08,49,14.70
2013,09,03,08,50,14.70
2013,09,03,08,51,14.80
2013,09,03,08,52,14.80
2013,09,03,08,53,14.80
2013,09,03,08,54,14.80
2013,09,03,08,55,14.80
2013,09,03,08,56,14.90
2013,09,03,08,57,15.00
2013,09,03,08,58,15.00
2013,09,03,08,59,15.00
2013,09,03,09,00,15.00
2013,09,03,09,01,15.00
2013,09,03,09,02,15.00
2013,09,03,09,03,15.00
2013,09,03,09,04,15.00
2013,09,03,09,05,15.00
2013,09,03,09,06,15.10
2013,09,03,09,07,15.10
2013,09,03,09,08,15.20
2013,09,03,09,09,15.30
2013,09,03,09,10,15.30
2013,09,03,09,11,15.30
2013,09,03,09,12,15.30
2013,09,03,09,13,15.30
2013,09,03,09,14,15.30
2013,09,03,09,15,15.20
2013,09,03,09,16,15.20
2013,09,03,09,17,15.10
2013,09,03,09,18,15.00
2013,09,03,09,19,15.00
2013,09,03,09,20,15.00
2013,09,03,09,21,15.00
2013,09,03,09,22,15.00
2013,09,03,09,23,15.00
2013,09,03,09,24,15.00
2013,09,03,09,25,15.00
2013,09,03,09,26,15.00
2013,09,03,09,27,15.00
2013,09,03,09,28,15.00
2013,09,03,09,29,15.00
2013,09,03,09,30,15.00
2013,09,03,09,31,15.00
2013,09,03,09,32,15.10
2013,09,03,09,33,15.20
2013,09,03,09,34,15.20
2013,09,03,09,35,15.20
2013,09,03,09,36,15.20
2013,09,03,09,37,15.20
2013,09,03,09,38,15.30
2013,09,03,09,39,15.30
2013,09,03,09,40,15.30
2013,09,03,09,41,15.30
2013,09,03,09,42,15.30
2013,09,03,09,43,15.30
2013,09,03,09,44,15.30
2013,09,03,09,45,15.40
2013,09,03,09,46,15.40
2013,09,03,09,47,15.40
2013,09,03,09,48,15.40
2013,09,03,09,49,15.40
2013,09,03,09,50,15.30
2013,09,03,09,51,15.30
2013,09,03,09,52,15.30
2013,09,03,09,53,15.30
2013,09,03,09,54,15.30
2013,09,03,09,55,15.30
2013,09,03,09,56,15.30
2013,09,03,09,57,15.30
2013,09,03,09,58,15.30
2013,09,03,09,59,15.30
2013,09,03,10,00,15.30
2013,09,03,10,01,15.30
2013,09,03,10,02,15.30
2013,09,03,10,03,15.30
2013,09,03,10,04,15.30
2013,09,03,10,05,15.30
2013,09,03,10,06,15.40
2013,09,03,10,07,15.40
2013,09,03,10,08,15.40
2013,09,03,10,09,15.40
2013,09,03,10,10,15.40
2013,09,03,10,11,15.40
2013,09,03,10,12,15.40
2013,09,03,10,13,15.40
2013,09,03,10,14,15.40
2013,09,03,10,15,15.50
2013,09,03,10,16,15.50
2013,09,03,10,17,15.50
2013,09,03,10,18,15.50
2013,09,03,10,19,15.60
2013,09,03,10,20,15.60
2013,09,03,10,21,15.60
2013,09,03,10,22,15.60
2013,09,03,10,23,15.60
2013,09,03,10,24,15.70
2013,09,03,10,25,15.70
2013,09,03,10,26,15.70
2013,09,03,10,27,15.70
2013,09,03,10,28,15.80
2013,09,03,10,29,15.80
2013,09,03,10,30,15.80
2013,09,03,10,31,15.90
2013,09,03,10,32,15.90
2013,09,03,10,33,15.90
2013,09,03,10,34,15.90
2013,09,03,10,35,15.90
2013,09,03,10,36,16.00
2013,09,03,10,37,16.00
2013,09,03,10,38,15.90
2013,09,03,10,39,15.90
2013,09,03,10,40,15.90
2013,09,03,10,41,15.90
2013,09,03,10,42,15.90
2013,09,03,10,43,16.00
2013,09,03,10,44,16.00
2013,09,03,10,45,16.00
2013,09,03,10,46,16.00
2013,09,03,10,47,16.10
2013,09,03,10,48,16.10
2013,09,03,10,49,16.10
2013,09,03,10,50,16.10
2013,09,03,10,51,16.10
2013,09,03,10,52,16.10
2013,09,03,10,53,16.10
2013,09,03,10,54,16.10
2013,09,03,10,55,16.10
2013,09,03,10,56,16.10
2013,09,03,10,57,16.10
2013,09,03,10,58,16.10
2013,09,03,10,59,16.10
2013,09,03,11,00,16.10
2013,09,03,11,01,16.10
2013,09,03,11,02,16.20
2013,09,03,11,03,16.20
2013,09,03,11,04,16.20
2013,09,03,11,05,16.20
2013,09,03,11,06,16.20
2013,09,03,11,07,16.20
2013,09,03,11,08,16.20
2013,09,03,11,09,16.20
2013,09,03,11,10,16.10
2013,09,03,11,11,16.10
2013,09,03,11,12,16.10
2013,09,03,11,13,16.10
2013,09,03,11,14,16.10
2013,09,03,11,15,16.10
2013,09,03,11,16,16.10
2013,09,03,11,17,16.10
2013,09,03,11,18,16.20
2013,09,03,11,19,16.20
2013,09,03,11,20,16.20
2013,09,03,11,21,16.30
2013,09,03,11,22,16.30
2013,09,03,11,23,16.30
2013,09,03,11,24,16.40
2013,09,03,11,25,16.50
2013,09,03,11,26,16.60
2013,09,03,11,27,16.70
2013,09,03,11,28,16.70
2013,09,03,11,29,16.80
2013,09,03,11,30,16.80
2013,09,03,11,31,16.80
2013,09,03,11,32,16.80
2013,09,03,11,33,16.80
2013,09,03,11,34,16.80
2013,09,03,11,35,16.90
2013,09,03,11,36,16.90
2013,09,03,11,37,16.90
2013,09,03,11,38,16.90
2013,09,03,11,39,16.90
2013,09,03,11,40,16.90
2013,09,03,11,41,16.90
2013,09,03,11,42,16.90
2013,09,03,11,43,16.90
2013,09,03,11,44,17.00
2013,09,03,11,45,17.00
2013,09,03,11,46,17.00
2013,09,03,11,47,17.00
2013,09,03,11,48,16.90
2013,09,03,11,49,16.90
2013,09,03,11,50,17.00
2013,09,03,11,51,17.00
2013,09,03,11,52,16.90
2013,09,03,11,53,16.90
2013,09,03,11,54,16.90
2013,09,03,11,55,17.00
2013,09,03,11,56,17.00
2013,09,03,11,57,17.00
2013,09,03,11,58,17.00
2013,09,03,11,59,17.00
2013,09,03,12,00,17.10
2013,09,03,12,01,17.10
2013,09,03,12,02,17.10
2013,09,03,12,03,17.20
2013,09,03,12,04,17.20
2013,09,03,12,05,17.30
2013,09,03,12,06,17.30
2013,09,03,12,07,17.40
2013,09,03,12,08,17.40
2013,09,03,12,09,17.40
2013,09,03,12,10,17.50
2013,09,03,12,11,17.50
2013,09,03,12,12,17.60
2013,09,03,12,13,17.60
2013,09,03,12,14,17.60
2013,09,03,12,15,17.70
2013,09,03,12,16,17.70
2013,09,03,12,17,17.70
2013,09,03,12,18,17.70
2013,09,03,12,19,17.70
2013,09,03,12,20,17.70
2013,09,03,12,21,17.70
2013,09,03,12,22,17.70
2013,09,03,12,23,17.70
2013,09,03,12,24,17.70
2013,09,03,12,25,17.80
2013,09,03,12,26,17.80
2013,09,03,12,27,17.80
2013,09,03,12,28,17.90
2013,09,03,12,29,17.90
2013,09,03,12,30,17.90
2013,09,03,12,31,17.90
2013,09,03,12,32,18.00
2013,09,03,12,33,18.10
2013,09,03,12,34,18.10
2013,09,03,12,35,18.20
2013,09,03,12,36,18.30
2013,09,03,12,37,18.30
2013,09,03,12,38,18.40
2013,09,03,12,39,18.50
2013,09,03,12,40,18.50
2013,09,03,12,41,18.60
2013,09,03,12,42,18.60
2013,09,03,12,43,18.70
2013,09,03,12,44,18.70
2013,09,03,12,45,18.80
2013,09,03,12,46,18.80
2013,09,03,12,47,18.80
2013,09,03,12,48,18.80
2013,09,03,12,49,18.80
2013,09,03,12,50,18.80
2013,09,03,12,51,18.80
2013,09,03,12,52,18.80
2013,09,03,12,53,18.90
2013,09,03,12,54,18.90
2013,09,03,12,55,18.90
2013,09,03,12,56,18.90
2013,09,03,12,57,19.00
2013,09,03,12,58,19.10
2013,09,03,12,59,19.10
2013,09,03,13,00,19.20
2013,09,03,13,01,19.30
2013,09,03,13,02,19.30
2013,09,03,13,03,19.40
2013,09,03,13,04,19.40
2013,09,03,13,05,19.40
2013,09,03,13,06,19.40
2013,09,03,13,07,19.50
2013,09,03,13,08,19.60
2013,09,03,13,09,19.60
2013,09,03,13,10,19.70
2013,09,03,13,11,19.70
2013,09,03,13,12,19.80
2013,09,03,13,13,20.00
2013,09,03,13,14,20.10
2013,09,03,13,15,20.10
2013,09,03,13,16,20.20
2013,09,03,13,17,20.10
2013,09,03,13,18,20.10
2013,09,03,13,19,20.00
2013,09,03,13,20,19.90
2013,09,03,13,21,19.80
2013,09,03,13,22,19.60
2013,09,03,13,23,19.60
2013,09,03,13,24,19.60
2013,09,03,13,25,19.60
2013,09,03,13,26,19.60
2013,09,03,13,27,19.70
2013,09,03,13,28,19.80
2013,09,03,13,29,19.90
2013,09,03,13,30,20.00
2013,09,03,13,31,20.00
2013,09,03,13,32,20.00
2013,09,03,13,33,19.90
2013,09,03,13,34,19.90
2013,09,03,13,35,19.80
2013,09,03,13,36,19.80
2013,09,03,13,37,19.80
2013,09,03,13,38,19.80
2013,09,03,13,39,19.90
2013,09,03,13,40,19.90
2013,09,03,13,41,19.90
2013,09,03,13,42,19.90
2013,09,03,13,43,20.00
2013,09,03,13,44,20.00
2013,09,03,13,45,20.00
2013,09,03,13,46,20.00
2013,09,03,13,47,20.10
2013,09,03,13,48,20.10
2013,09,03,13,49,20.20
2013,09,03,13,50,20.30
2013,09,03,13,51,20.30
2013,09,03,13,52,20.40
2013,09,03,13,53,20.40
2013,09,03,13,54,20.50
2013,09,03,13,55,20.50
2013,09,03,13,56,20.70
2013,09,03,13,57,20.80
2013,09,03,13,58,20.90
2013,09,03,13,59,21.00
2013,09,03,14,00,21.10
2013,09,03,14,01,21.20
2013,09,03,14,02,21.20
2013,09,03,14,03,21.30
2013,09,03,14,04,21.30
2013,09,03,14,05,21.30
2013,09,03,14,06,21.30
2013,09,03,14,07,21.30
2013,09,03,14,08,21.20
2013,09,03,14,09,21.10
2013,09,03,14,10,21.00
2013,09,03,14,11,20.90
2013,09,03,14,12,20.80
2013,09,03,14,13,20.70
2013,09,03,14,14,20.70
2013,09,03,14,15,20.60
2013,09,03,14,16,20.60
2013,09,03,14,17,20.50
2013,09,03,14,18,20.40
2013,09,03,14,19,20.40
2013,09,03,14,20,20.30
2013,09,03,14,21,20.30
2013,09,03,14,22,20.20
2013,09,03,14,23,20.20
2013,09,03,14,24,20.30
2013,09,03,14,25,20.30
2013,09,03,14,26,20.30
2013,09,03,14,27,20.30
2013,09,03,14,28,20.40
2013,09,03,14,29,20.40
2013,09,03,14,30,20.40
2013,09,03,14,31,20.40
2013,09,03,14,32,20.30
2013,09,03,14,33,20.20
2013,09,03,14,34,20.10
2013,09,03,14,35,20.00
2013,09,03,14,36,20.00
2013,09,03,14,37,19.90
2013,09,03,14,38,19.90
2013,09,03,14,39,19.80
2013,09,03,14,40,19.80
2013,09,03,14,41,19.70
2013,09,03,14,42,19.70
2013,09,03,14,43,19.80
2013,09,03,14,44,19.80
2013,09,03,14,45,19.80
2013,09,03,14,46,19.80
2013,09,03,14,47,19.80
2013,09,03,14,48,19.90
2013,09,03,14,49,19.90
2013,09,03,14,50,19.90
2013,09,03,14,51,19.90
2013,09,03,14,52,19.90
2013,09,03,14,53,19.90
2013,09,03,14,54,19.90
2013,09,03,14,55,19.90
2013,09,03,14,56,19.90
2013,09,03,14,57,19.90
2013,09,03,14,58,19.80
2013,09,03,14,59,19.60
2013,09,03,15,00,19.30
2013,09,03,15,01,19.10
2013,09,03,15,02,19.00
2013,09,03,15,03,18.90
2013,09,03,15,04,18.80
2013,09,03,15,05,18.80
2013,09,03,15,06,18.60
2013,09,03,15,07,18.60
2013,09,03,15,08,18.50
2013,09,03,15,09,18.40
2013,09,03,15,10,18.40
2013,09,03,15,11,18.40
2013,09,03,15,12,18.40
2013,09,03,15,13,18.40
2013,09,03,15,14,18.40
2013,09,03,15,15,18.40
2013,09,03,15,16,18.40
2013,09,03,15,17,18.40
2013,09,03,15,18,18.40
2013,09,03,15,19,18.40
2013,09,03,15,20,18.40
2013,09,03,15,21,18.40
2013,09,03,15,22,18.40
2013,09,03,15,23,18.40
2013,09,03,15,24,18.40
2013,09,03,15,25,18.40
2013,09,03,15,26,18.50
2013,09,03,15,27,18.60
2013,09,03,15,28,18.60
2013,09,03,15,29,18.60
2013,09,03,15,30,18.70
2013,09,03,15,31,18.80
2013,09,03,15,32,18.90
2013,09,03,15,33,19.10
2013,09,03,15,34,19.20
2013,09,03,15,35,19.40
2013,09,03,15,36,19.60
2013,09,03,15,37,19.80
2013,09,03,15,38,19.90
2013,09,03,15,39,20.10
2013,09,03,15,40,20.20
2013,09,03,15,41,20.30
2013,09,03,15,42,20.40
2013,09,03,15,43,20.50
2013,09,03,15,44,20.60
2013,09,03,15,45,20.70
2013,09,03,15,46,20.60
2013,09,03,15,47,20.50
2013,09,03,15,48,20.40
2013,09,03,15,49,20.40
2013,09,03,15,50,20.30
2013,09,03,15,51,20.20
2013,09,03,15,52,20.00
2013,09,03,15,53,19.80
2013,09,03,15,54,19.80
2013,09,03,15,55,19.70
2013,09,03,15,56,19.70
2013,09,03,15,57,19.60
2013,09,03,15,58,19.50
2013,09,03,15,59,19.50
2013,09,03,16,00,19.60
2013,09,03,16,01,19.70
2013,09,03,16,02,19.80
2013,09,03,16,03,19.80
2013,09,03,16,04,19.80
2013,09,03,16,05,19.80
2013,09,03,16,06,19.80
2013,09,03,16,07,19.80
2013,09,03,16,08,19.80
2013,09,03,16,09,19.70
2013,09,03,16,10,19.60
2013,09,03,16,11,19.50
2013,09,03,16,12,19.40
2013,09,03,16,13,19.30
2013,09,03,16,14,19.30
2013,09,03,16,15,19.20
2013,09,03,16,16,19.20
2013,09,03,16,17,19.20
2013,09,03,16,18,19.20
2013,09,03,16,19,19.20
2013,09,03,16,20,19.20
2013,09,03,16,21,19.10
2013,09,03,16,22,18.90
2013,09,03,16,23,18.80
2013,09,03,16,24,18.60
2013,09,03,16,25,18.60
2013,09,03,16,26,18.60
2013,09,03,16,27,18.60
2013,09,03,16,28,18.60
2013,09,03,16,29,18.60
2013,09,03,16,30,18.60
2013,09,03,16,31,18.50
2013,09,03,16,32,18.50
2013,09,03,16,33,18.50
2013,09,03,16,34,18.50
2013,09,03,16,35,18.50
2013,09,03,16,36,18.50
2013,09,03,16,37,18.60
2013,09,03,16,38,18.70
2013,09,03,16,39,18.70
2013,09,03,16,40,18.80
2013,09,03,16,41,18.90
2013,09,03,16,42,18.90
2013,09,03,16,43,19.00
2013,09,03,16,44,19.10
2013,09,03,16,45,19.10
2013,09,03,16,46,19.10
2013,09,03,16,47,19.10
2013,09,03,16,48,19.10
2013,09,03,16,49,19.00
2013,09,03,16,50,18.90
2013,09,03,16,51,18.80
2013,09,03,16,52,18.70
2013,09,03,16,53,18.70
2013,09,03,16,54,18.70
2013,09,03,16,55,18.60
2013,09,03,16,56,18.50
2013,09,03,16,57,18.50
2013,09,03,16,58,18.50
2013,09,03,16,59,18.40
2013,09,03,17,00,18.40
2013,09,03,17,01,18.40
2013,09,03,17,02,18.40
2013,09,03,17,03,18.50
2013,09,03,17,04,18.50
2013,09,03,17,05,18.50
2013,09,03,17,06,18.60
2013,09,03,17,07,18.60
2013,09,03,17,08,18.60
2013,09,03,17,09,18.60
2013,09,03,17,10,18.60
2013,09,03,17,11,18.60
2013,09,03,17,12,18.60
2013,09,03,17,13,18.60
2013,09,03,17,14,18.70
2013,09,03,17,15,18.70
2013,09,03,17,16,18.70
2013,09,03,17,17,18.70
2013,09,03,17,18,18.70
2013,09,03,17,19,18.70